datetime,flow
1948-10-01,102.0
1948-10-02,104.0
1948-10-03,107.0
1948-10-04,105.0
1948-10-05,103.0
1948-10-06,103.0
1948-10-07,109.0
1948-10-08,107.0
1948-10-09,105.0
1948-10-10,111.0
1948-10-11,112.0
1948-10-12,113.0
1948-10-13,115.0
1948-10-14,117.0
1948-10-15,116.0
1948-10-16,115.0
1948-10-17,116.0
1948-10-18,115.0
1948-10-19,122.0
1948-10-20,126.0
1948-10-21,140.0
1948-10-22,140.0
1948-10-23,135.0
1948-10-24,135.0
1948-10-25,130.0
1948-10-26,135.0
1948-10-27,145.0
1948-10-28,145.0
1948-10-29,145.0
1948-10-30,145.0
1948-10-31,150.0
1948-11-01,150.0
1948-11-02,150.0
1948-11-03,155.0
1948-11-04,155.0
1948-11-05,155.0
1948-11-06,150.0
1948-11-07,140.0
1948-11-08,150.0
1948-11-09,145.0
1948-11-10,116.0
1948-11-11,189.0
1948-11-12,241.0
1948-11-13,285.0
1948-11-14,308.0
1948-11-15,340.0
1948-11-16,332.0
1948-11-17,332.0
1948-11-18,332.0
1948-11-19,270.0
1948-11-20,208.0
1948-11-21,278.0
1948-11-22,285.0
1948-11-23,300.0
1948-11-24,332.0
1948-11-25,375.0
1948-11-26,349.0
1948-11-27,324.0
1948-11-28,227.0
1948-11-29,278.0
1948-11-30,292.0
1948-12-01,308.0
1948-12-02,308.0
1948-12-03,332.0
1948-12-04,324.0
1948-12-05,285.0
1948-12-06,285.0
1948-12-07,300.0
1948-12-08,292.0
1948-12-09,300.0
1948-12-10,308.0
1948-12-11,300.0
1948-12-12,316.0
1948-12-13,340.0
1948-12-14,358.0
1948-12-15,384.0
1948-12-16,349.0
1948-12-17,349.0
1948-12-18,332.0
1948-12-19,332.0
1948-12-20,340.0
1948-12-21,340.0
1948-12-22,349.0
1948-12-23,384.0
1948-12-24,384.0
1948-12-25,316.0
1948-12-26,340.0
1948-12-27,332.0
1948-12-28,316.0
1948-12-29,300.0
1948-12-30,308.0
1948-12-31,308.0
1949-01-01,300.0
1949-01-02,332.0
1949-01-03,316.0
1949-01-04,270.0
1949-01-05,280.0
1949-01-06,290.0
1949-01-07,300.0
1949-01-08,310.0
1949-01-09,310.0
1949-01-10,310.0
1949-01-11,320.0
1949-01-12,320.0
1949-01-13,330.0
1949-01-14,330.0
1949-01-15,330.0
1949-01-16,320.0
1949-01-17,310.0
1949-01-18,308.0
1949-01-19,285.0
1949-01-20,278.0
1949-01-21,278.0
1949-01-22,270.0
1949-01-23,285.0
1949-01-24,292.0
1949-01-25,300.0
1949-01-26,308.0
1949-01-27,308.0
1949-01-28,308.0
1949-01-29,300.0
1949-01-30,292.0
1949-01-31,292.0
1949-02-01,292.0
1949-02-02,285.0
1949-02-03,278.0
1949-02-04,278.0
1949-02-05,278.0
1949-02-06,270.0
1949-02-07,285.0
1949-02-08,262.0
1949-02-09,285.0
1949-02-10,278.0
1949-02-11,278.0
1949-02-12,278.0
1949-02-13,270.0
1949-02-14,270.0
1949-02-15,270.0
1949-02-16,270.0
1949-02-17,292.0
1949-02-18,292.0
1949-02-19,292.0
1949-02-20,300.0
1949-02-21,308.0
1949-02-22,316.0
1949-02-23,332.0
1949-02-24,349.0
1949-02-25,366.0
1949-02-26,375.0
1949-02-27,375.0
1949-02-28,375.0
1949-03-01,393.0
1949-03-02,402.0
1949-03-03,412.0
1949-03-04,430.0
1949-03-05,440.0
1949-03-06,460.0
1949-03-07,480.0
1949-03-08,532.0
1949-03-09,545.0
1949-03-10,532.0
1949-03-11,510.0
1949-03-12,520.0
1949-03-13,520.0
1949-03-14,500.0
1949-03-15,480.0
1949-03-16,460.0
1949-03-17,470.0
1949-03-18,480.0
1949-03-19,470.0
1949-03-20,450.0
1949-03-21,421.0
1949-03-22,375.0
1949-03-23,340.0
1949-03-24,358.0
1949-03-25,332.0
1949-03-26,316.0
1949-03-27,285.0
1949-03-28,255.0
1949-03-29,248.0
1949-03-30,241.0
1949-03-31,220.0
1949-04-01,234.0
1949-04-02,227.0
1949-04-03,234.0
1949-04-04,234.0
1949-04-05,241.0
1949-04-06,248.0
1949-04-07,248.0
1949-04-08,241.0
1949-04-09,227.0
1949-04-10,227.0
1949-04-11,234.0
1949-04-12,255.0
1949-04-13,262.0
1949-04-14,262.0
1949-04-15,241.0
1949-04-16,220.0
1949-04-17,220.0
1949-04-18,248.0
1949-04-19,255.0
1949-04-20,285.0
1949-04-21,332.0
1949-04-22,316.0
1949-04-23,316.0
1949-04-24,316.0
1949-04-25,470.0
1949-04-26,780.0
1949-04-27,952.0
1949-04-28,1030.0
1949-04-29,900.0
1949-04-30,830.0
1949-05-01,900.0
1949-05-02,970.0
1949-05-03,935.0
1949-05-04,990.0
1949-05-05,1250.0
1949-05-06,1250.0
1949-05-07,1170.0
1949-05-08,1070.0
1949-05-09,952.0
1949-05-10,970.0
1949-05-11,990.0
1949-05-12,1290.0
1949-05-13,1690.0
1949-05-14,1790.0
1949-05-15,1740.0
1949-05-16,1970.0
1949-05-17,2330.0
1949-05-18,2540.0
1949-05-19,2210.0
1949-05-20,1850.0
1949-05-21,1640.0
1949-05-22,1340.0
1949-05-23,1250.0
1949-05-24,1210.0
1949-05-25,1170.0
1949-05-26,1210.0
1949-05-27,1340.0
1949-05-28,1540.0
1949-05-29,1740.0
1949-05-30,1590.0
1949-05-31,1690.0
1949-06-01,2030.0
1949-06-02,2030.0
1949-06-03,1490.0
1949-06-04,1130.0
1949-06-05,1050.0
1949-06-06,1130.0
1949-06-07,1490.0
1949-06-08,1790.0
1949-06-09,1970.0
1949-06-10,2150.0
1949-06-11,2330.0
1949-06-12,2750.0
1949-06-13,3050.0
1949-06-14,3530.0
1949-06-15,3980.0
1949-06-16,4250.0
1949-06-17,4840.0
1949-06-18,5690.0
1949-06-19,6500.0
1949-06-20,7370.0
1949-06-21,8160.0
1949-06-22,9440.0
1949-06-23,8720.0
1949-06-24,7890.0
1949-06-25,7500.0
1949-06-26,7110.0
1949-06-27,6740.0
1949-06-28,5910.0
1949-06-29,5250.0
1949-06-30,4740.0
1949-07-01,4250.0
1949-07-02,3800.0
1949-07-03,3290.0
1949-07-04,2970.0
1949-07-05,2750.0
1949-07-06,2610.0
1949-07-07,2330.0
1949-07-08,2030.0
1949-07-09,1820.0
1949-07-10,1670.0
1949-07-11,1570.0
1949-07-12,1620.0
1949-07-13,2030.0
1949-07-14,2090.0
1949-07-15,1770.0
1949-07-16,1620.0
1949-07-17,1440.0
1949-07-18,1200.0
1949-07-19,1000.0
1949-07-20,820.0
1949-07-21,720.0
1949-07-22,595.0
1949-07-23,520.0
1949-07-24,480.0
1949-07-25,460.0
1949-07-26,490.0
1949-07-27,460.0
1949-07-28,480.0
1949-07-29,480.0
1949-07-30,470.0
1949-07-31,380.0
1949-08-01,323.0
1949-08-02,305.0
1949-08-03,296.0
1949-08-04,296.0
1949-08-05,278.0
1949-08-06,278.0
1949-08-07,314.0
1949-08-08,323.0
1949-08-09,332.0
1949-08-10,350.0
1949-08-11,332.0
1949-08-12,287.0
1949-08-13,270.0
1949-08-14,253.0
1949-08-15,237.0
1949-08-16,221.0
1949-08-17,214.0
1949-08-18,214.0
1949-08-19,203.0
1949-08-20,192.0
1949-08-21,184.0
1949-08-22,177.0
1949-08-23,170.0
1949-08-24,164.0
1949-08-25,159.0
1949-08-26,156.0
1949-08-27,151.0
1949-08-28,151.0
1949-08-29,147.0
1949-08-30,147.0
1949-08-31,146.0
1949-09-01,149.0
1949-09-02,147.0
1949-09-03,155.0
1949-09-04,162.0
1949-09-05,155.0
1949-09-06,154.0
1949-09-07,163.0
1949-09-08,167.0
1949-09-09,164.0
1949-09-10,163.0
1949-09-11,163.0
1949-09-12,160.0
1949-09-13,158.0
1949-09-14,159.0
1949-09-15,167.0
1949-09-16,167.0
1949-09-17,158.0
1949-09-18,156.0
1949-09-19,163.0
1949-09-20,162.0
1949-09-21,158.0
1949-09-22,153.0
1949-09-23,153.0
1949-09-24,141.0
1949-09-25,141.0
1949-09-26,147.0
1949-09-27,151.0
1949-09-28,154.0
1949-09-29,158.0
1949-09-30,160.0
1949-10-01,145.0
1949-10-02,144.0
1949-10-03,146.0
1949-10-04,141.0
1949-10-05,144.0
1949-10-06,145.0
1949-10-07,145.0
1949-10-08,141.0
1949-10-09,139.0
1949-10-10,144.0
1949-10-11,149.0
1949-10-12,144.0
1949-10-13,146.0
1949-10-14,170.0
1949-10-15,180.0
1949-10-16,180.0
1949-10-17,180.0
1949-10-18,190.0
1949-10-19,195.0
1949-10-20,195.0
1949-10-21,195.0
1949-10-22,200.0
1949-10-23,200.0
1949-10-24,195.0
1949-10-25,190.0
1949-10-26,195.0
1949-10-27,202.0
1949-10-28,204.0
1949-10-29,205.0
1949-10-30,208.0
1949-10-31,198.0
1949-11-01,192.0
1949-11-02,198.0
1949-11-03,200.0
1949-11-04,192.0
1949-11-05,194.0
1949-11-06,199.0
1949-11-07,198.0
1949-11-08,205.0
1949-11-09,210.0
1949-11-10,230.0
1949-11-11,261.0
1949-11-12,274.0
1949-11-13,274.0
1949-11-14,301.0
1949-11-15,340.0
1949-11-16,390.0
1949-11-17,400.0
1949-11-18,400.0
1949-11-19,390.0
1949-11-20,390.0
1949-11-21,400.0
1949-11-22,400.0
1949-11-23,410.0
1949-11-24,410.0
1949-11-25,400.0
1949-11-26,420.0
1949-11-27,450.0
1949-11-28,460.0
1949-11-29,460.0
1949-11-30,450.0
1949-12-01,450.0
1949-12-02,450.0
1949-12-03,440.0
1949-12-04,400.0
1949-12-05,370.0
1949-12-06,340.0
1949-12-07,410.0
1949-12-08,390.0
1949-12-09,460.0
1949-12-10,485.0
1949-12-11,430.0
1949-12-12,249.0
1949-12-13,194.0
1949-12-14,283.0
1949-12-15,350.0
1949-12-16,370.0
1949-12-17,330.0
1949-12-18,350.0
1949-12-19,370.0
1949-12-20,410.0
1949-12-21,420.0
1949-12-22,410.0
1949-12-23,400.0
1949-12-24,360.0
1949-12-25,370.0
1949-12-26,370.0
1949-12-27,370.0
1949-12-28,370.0
1949-12-29,360.0
1949-12-30,370.0
1949-12-31,380.0
1950-01-01,380.0
1950-01-02,410.0
1950-01-03,400.0
1950-01-04,380.0
1950-01-05,370.0
1950-01-06,350.0
1950-01-07,340.0
1950-01-08,330.0
1950-01-09,330.0
1950-01-10,330.0
1950-01-11,340.0
1950-01-12,340.0
1950-01-13,330.0
1950-01-14,320.0
1950-01-15,320.0
1950-01-16,340.0
1950-01-17,350.0
1950-01-18,350.0
1950-01-19,360.0
1950-01-20,370.0
1950-01-21,380.0
1950-01-22,390.0
1950-01-23,400.0
1950-01-24,410.0
1950-01-25,420.0
1950-01-26,420.0
1950-01-27,430.0
1950-01-28,410.0
1950-01-29,400.0
1950-01-30,420.0
1950-01-31,430.0
1950-02-01,410.0
1950-02-02,420.0
1950-02-03,430.0
1950-02-04,430.0
1950-02-05,430.0
1950-02-06,460.0
1950-02-07,498.0
1950-02-08,535.0
1950-02-09,535.0
1950-02-10,498.0
1950-02-11,498.0
1950-02-12,535.0
1950-02-13,460.0
1950-02-14,440.0
1950-02-15,450.0
1950-02-16,522.0
1950-02-17,535.0
1950-02-18,548.0
1950-02-19,560.0
1950-02-20,572.0
1950-02-21,585.0
1950-02-22,548.0
1950-02-23,510.0
1950-02-24,535.0
1950-02-25,485.0
1950-02-26,535.0
1950-02-27,535.0
1950-02-28,548.0
1950-03-01,585.0
1950-03-02,572.0
1950-03-03,548.0
1950-03-04,535.0
1950-03-05,510.0
1950-03-06,485.0
1950-03-07,450.0
1950-03-08,410.0
1950-03-09,380.0
1950-03-10,370.0
1950-03-11,360.0
1950-03-12,330.0
1950-03-13,320.0
1950-03-14,310.0
1950-03-15,301.0
1950-03-16,292.0
1950-03-17,283.0
1950-03-18,274.0
1950-03-19,263.0
1950-03-20,246.0
1950-03-21,241.0
1950-03-22,222.0
1950-03-23,205.0
1950-03-24,202.0
1950-03-25,169.0
1950-03-26,87.0
1950-03-27,69.0
1950-03-28,62.0
1950-03-29,59.0
1950-03-30,316.0
1950-03-31,515.0
1950-04-01,177.0
1950-04-02,166.0
1950-04-03,163.0
1950-04-04,158.0
1950-04-05,159.0
1950-04-06,165.0
1950-04-07,166.0
1950-04-08,158.0
1950-04-09,150.0
1950-04-10,139.0
1950-04-11,152.0
1950-04-12,160.0
1950-04-13,147.0
1950-04-14,140.0
1950-04-15,134.0
1950-04-16,134.0
1950-04-17,140.0
1950-04-18,160.0
1950-04-19,176.0
1950-04-20,163.0
1950-04-21,167.0
1950-04-22,180.0
1950-04-23,261.0
1950-04-24,498.0
1950-04-25,610.0
1950-04-26,560.0
1950-04-27,440.0
1950-04-28,330.0
1950-04-29,330.0
1950-04-30,340.0
1950-05-01,340.0
1950-05-02,301.0
1950-05-03,301.0
1950-05-04,292.0
1950-05-05,301.0
1950-05-06,274.0
1950-05-07,246.0
1950-05-08,233.0
1950-05-09,217.0
1950-05-10,208.0
1950-05-11,198.0
1950-05-12,181.0
1950-05-13,167.0
1950-05-14,165.0
1950-05-15,163.0
1950-05-16,162.0
1950-05-17,162.0
1950-05-18,162.0
1950-05-19,188.0
1950-05-20,243.0
1950-05-21,283.0
1950-05-22,261.0
1950-05-23,228.0
1950-05-24,233.0
1950-05-25,310.0
1950-05-26,340.0
1950-05-27,370.0
1950-05-28,390.0
1950-05-29,410.0
1950-05-30,390.0
1950-05-31,330.0
1950-06-01,283.0
1950-06-02,292.0
1950-06-03,350.0
1950-06-04,498.0
1950-06-05,850.0
1950-06-06,1090.0
1950-06-07,940.0
1950-06-08,850.0
1950-06-09,820.0
1950-06-10,735.0
1950-06-11,635.0
1950-06-12,560.0
1950-06-13,522.0
1950-06-14,420.0
1950-06-15,340.0
1950-06-16,283.0
1950-06-17,225.0
1950-06-18,183.0
1950-06-19,159.0
1950-06-20,150.0
1950-06-21,145.0
1950-06-22,145.0
1950-06-23,144.0
1950-06-24,142.0
1950-06-25,141.0
1950-06-26,146.0
1950-06-27,145.0
1950-06-28,144.0
1950-06-29,145.0
1950-06-30,166.0
1950-07-01,147.0
1950-07-02,129.0
1950-07-03,123.0
1950-07-04,121.0
1950-07-05,114.0
1950-07-06,115.0
1950-07-07,110.0
1950-07-08,107.0
1950-07-09,106.0
1950-07-10,100.0
1950-07-11,99.0
1950-07-12,99.0
1950-07-13,103.0
1950-07-14,104.0
1950-07-15,95.0
1950-07-16,90.0
1950-07-17,80.0
1950-07-18,68.0
1950-07-19,62.0
1950-07-20,58.0
1950-07-21,57.0
1950-07-22,58.0
1950-07-23,55.0
1950-07-24,55.0
1950-07-25,55.0
1950-07-26,54.0
1950-07-27,55.0
1950-07-28,56.0
1950-07-29,56.0
1950-07-30,55.0
1950-07-31,54.0
1950-08-01,54.0
1950-08-02,55.0
1950-08-03,52.0
1950-08-04,52.0
1950-08-05,51.0
1950-08-06,52.0
1950-08-07,52.0
1950-08-08,52.0
1950-08-09,52.0
1950-08-10,52.0
1950-08-11,71.0
1950-08-12,72.0
1950-08-13,73.0
1950-08-14,80.0
1950-08-15,80.0
1950-08-16,93.0
1950-08-17,126.0
1950-08-18,123.0
1950-08-19,108.0
1950-08-20,97.0
1950-08-21,89.0
1950-08-22,86.0
1950-08-23,83.0
1950-08-24,77.0
1950-08-25,76.0
1950-08-26,78.0
1950-08-27,76.0
1950-08-28,78.0
1950-08-29,76.0
1950-08-30,75.0
1950-08-31,73.0
1950-09-01,71.0
1950-09-02,70.0
1950-09-03,68.0
1950-09-04,67.0
1950-09-05,68.0
1950-09-06,67.0
1950-09-07,66.0
1950-09-08,67.0
1950-09-09,71.0
1950-09-10,80.0
1950-09-11,79.0
1950-09-12,76.0
1950-09-13,76.0
1950-09-14,75.0
1950-09-15,76.0
1950-09-16,70.0
1950-09-17,73.0
1950-09-18,76.0
1950-09-19,85.0
1950-09-20,98.0
1950-09-21,106.0
1950-09-22,108.0
1950-09-23,103.0
1950-09-24,109.0
1950-09-25,111.0
1950-09-26,118.0
1950-09-27,116.0
1950-09-28,138.0
1950-09-29,130.0
1950-09-30,121.0
1950-10-01,120.0
1950-10-02,116.0
1950-10-03,121.0
1950-10-04,122.0
1950-10-05,116.0
1950-10-06,113.0
1950-10-07,116.0
1950-10-08,123.0
1950-10-09,121.0
1950-10-10,122.0
1950-10-11,109.0
1950-10-12,107.0
1950-10-13,93.0
1950-10-14,103.0
1950-10-15,110.0
1950-10-16,118.0
1950-10-17,122.0
1950-10-18,115.0
1950-10-19,113.0
1950-10-20,112.0
1950-10-21,115.0
1950-10-22,118.0
1950-10-23,134.0
1950-10-24,110.0
1950-10-25,104.0
1950-10-26,104.0
1950-10-27,108.0
1950-10-28,109.0
1950-10-29,102.0
1950-10-30,99.0
1950-10-31,94.0
1950-11-01,92.0
1950-11-02,92.0
1950-11-03,94.0
1950-11-04,98.0
1950-11-05,94.0
1950-11-06,100.0
1950-11-07,102.0
1950-11-08,101.0
1950-11-09,100.0
1950-11-10,98.0
1950-11-11,88.0
1950-11-12,78.0
1950-11-13,107.0
1950-11-14,112.0
1950-11-15,122.0
1950-11-16,138.0
1950-11-17,159.0
1950-11-18,183.0
1950-11-19,206.0
1950-11-20,283.0
1950-11-21,266.0
1950-11-22,274.0
1950-11-23,266.0
1950-11-24,263.0
1950-11-25,231.0
1950-11-26,220.0
1950-11-27,217.0
1950-11-28,222.0
1950-11-29,204.0
1950-11-30,196.0
1950-12-01,200.0
1950-12-02,190.0
1950-12-03,167.0
1950-12-04,145.0
1950-12-05,170.0
1950-12-06,155.0
1950-12-07,174.0
1950-12-08,228.0
1950-12-09,283.0
1950-12-10,292.0
1950-12-11,301.0
1950-12-12,330.0
1950-12-13,360.0
1950-12-14,340.0
1950-12-15,330.0
1950-12-16,330.0
1950-12-17,310.0
1950-12-18,283.0
1950-12-19,261.0
1950-12-20,227.0
1950-12-21,231.0
1950-12-22,254.0
1950-12-23,263.0
1950-12-24,266.0
1950-12-25,266.0
1950-12-26,283.0
1950-12-27,274.0
1950-12-28,266.0
1950-12-29,264.0
1950-12-30,261.0
1950-12-31,244.0
1951-01-01,249.0
1951-01-02,283.0
1951-01-03,263.0
1951-01-04,220.0
1951-01-05,249.0
1951-01-06,274.0
1951-01-07,261.0
1951-01-08,244.0
1951-01-09,236.0
1951-01-10,256.0
1951-01-11,258.0
1951-01-12,241.0
1951-01-13,256.0
1951-01-14,236.0
1951-01-15,231.0
1951-01-16,231.0
1951-01-17,251.0
1951-01-18,244.0
1951-01-19,249.0
1951-01-20,252.0
1951-01-21,258.0
1951-01-22,258.0
1951-01-23,274.0
1951-01-24,274.0
1951-01-25,274.0
1951-01-26,283.0
1951-01-27,283.0
1951-01-28,292.0
1951-01-29,301.0
1951-01-30,292.0
1951-01-31,192.0
1951-02-01,204.0
1951-02-02,259.0
1951-02-03,283.0
1951-02-04,274.0
1951-02-05,263.0
1951-02-06,274.0
1951-02-07,283.0
1951-02-08,310.0
1951-02-09,310.0
1951-02-10,320.0
1951-02-11,340.0
1951-02-12,360.0
1951-02-13,360.0
1951-02-14,214.0
1951-02-15,301.0
1951-02-16,370.0
1951-02-17,350.0
1951-02-18,360.0
1951-02-19,350.0
1951-02-20,340.0
1951-02-21,360.0
1951-02-22,370.0
1951-02-23,400.0
1951-02-24,390.0
1951-02-25,390.0
1951-02-26,370.0
1951-02-27,350.0
1951-02-28,283.0
1951-03-01,283.0
1951-03-02,320.0
1951-03-03,233.0
1951-03-04,200.0
1951-03-05,292.0
1951-03-06,340.0
1951-03-07,400.0
1951-03-08,360.0
1951-03-09,320.0
1951-03-10,301.0
1951-03-11,301.0
1951-03-12,274.0
1951-03-13,233.0
1951-03-14,256.0
1951-03-15,233.0
1951-03-16,214.0
1951-03-17,211.0
1951-03-18,205.0
1951-03-19,176.0
1951-03-20,180.0
1951-03-21,193.0
1951-03-22,174.0
1951-03-23,156.0
1951-03-24,150.0
1951-03-25,146.0
1951-03-26,142.0
1951-03-27,144.0
1951-03-28,144.0
1951-03-29,142.0
1951-03-30,138.0
1951-03-31,144.0
1951-04-01,151.0
1951-04-02,165.0
1951-04-03,172.0
1951-04-04,167.0
1951-04-05,162.0
1951-04-06,169.0
1951-04-07,170.0
1951-04-08,169.0
1951-04-09,174.0
1951-04-10,174.0
1951-04-11,166.0
1951-04-12,130.0
1951-04-13,177.0
1951-04-14,165.0
1951-04-15,169.0
1951-04-16,169.0
1951-04-17,172.0
1951-04-18,156.0
1951-04-19,144.0
1951-04-20,140.0
1951-04-21,144.0
1951-04-22,136.0
1951-04-23,123.0
1951-04-24,114.0
1951-04-25,115.0
1951-04-26,114.0
1951-04-27,110.0
1951-04-28,105.0
1951-04-29,110.0
1951-04-30,105.0
1951-05-01,100.0
1951-05-02,96.0
1951-05-03,91.0
1951-05-04,88.0
1951-05-05,85.0
1951-05-06,81.0
1951-05-07,79.0
1951-05-08,72.0
1951-05-09,70.0
1951-05-10,67.0
1951-05-11,63.0
1951-05-12,72.0
1951-05-13,66.0
1951-05-14,61.0
1951-05-15,58.0
1951-05-16,59.0
1951-05-17,74.0
1951-05-18,79.0
1951-05-19,80.0
1951-05-20,78.0
1951-05-21,73.0
1951-05-22,73.0
1951-05-23,75.0
1951-05-24,97.0
1951-05-25,128.0
1951-05-26,104.0
1951-05-27,101.0
1951-05-28,102.0
1951-05-29,231.0
1951-05-30,266.0
1951-05-31,256.0
1951-06-01,202.0
1951-06-02,149.0
1951-06-03,124.0
1951-06-04,104.0
1951-06-05,92.0
1951-06-06,88.0
1951-06-07,89.0
1951-06-08,79.0
1951-06-09,72.0
1951-06-10,73.0
1951-06-11,72.0
1951-06-12,71.0
1951-06-13,70.0
1951-06-14,72.0
1951-06-15,76.0
1951-06-16,86.0
1951-06-17,86.0
1951-06-18,82.0
1951-06-19,77.0
1951-06-20,72.0
1951-06-21,70.0
1951-06-22,66.0
1951-06-23,66.0
1951-06-24,71.0
1951-06-25,74.0
1951-06-26,75.0
1951-06-27,72.0
1951-06-28,64.0
1951-06-29,62.0
1951-06-30,63.0
1951-07-01,62.0
1951-07-02,58.0
1951-07-03,57.0
1951-07-04,56.0
1951-07-05,55.0
1951-07-06,55.0
1951-07-07,55.0
1951-07-08,54.0
1951-07-09,53.0
1951-07-10,52.0
1951-07-11,50.0
1951-07-12,50.0
1951-07-13,50.0
1951-07-14,50.0
1951-07-15,50.0
1951-07-16,49.0
1951-07-17,48.0
1951-07-18,49.0
1951-07-19,50.0
1951-07-20,50.0
1951-07-21,50.0
1951-07-22,50.0
1951-07-23,50.0
1951-07-24,50.0
1951-07-25,49.0
1951-07-26,49.0
1951-07-27,49.0
1951-07-28,49.0
1951-07-29,49.0
1951-07-30,49.0
1951-07-31,49.0
1951-08-01,49.0
1951-08-02,49.0
1951-08-03,49.0
1951-08-04,52.0
1951-08-05,55.0
1951-08-06,50.0
1951-08-07,49.0
1951-08-08,49.0
1951-08-09,49.0
1951-08-10,49.0
1951-08-11,49.0
1951-08-12,49.0
1951-08-13,49.0
1951-08-14,49.0
1951-08-15,48.0
1951-08-16,49.0
1951-08-17,48.0
1951-08-18,48.0
1951-08-19,48.0
1951-08-20,49.0
1951-08-21,50.0
1951-08-22,50.0
1951-08-23,50.0
1951-08-24,50.0
1951-08-25,63.0
1951-08-26,72.0
1951-08-27,76.0
1951-08-28,72.0
1951-08-29,69.0
1951-08-30,68.0
1951-08-31,68.0
1951-09-01,74.0
1951-09-02,114.0
1951-09-03,103.0
1951-09-04,90.0
1951-09-05,81.0
1951-09-06,75.0
1951-09-07,74.0
1951-09-08,74.0
1951-09-09,75.0
1951-09-10,75.0
1951-09-11,74.0
1951-09-12,70.0
1951-09-13,69.0
1951-09-14,73.0
1951-09-15,71.0
1951-09-16,72.0
1951-09-17,74.0
1951-09-18,75.0
1951-09-19,82.0
1951-09-20,77.0
1951-09-21,71.0
1951-09-22,69.0
1951-09-23,69.0
1951-09-24,66.0
1951-09-25,64.0
1951-09-26,64.0
1951-09-27,64.0
1951-09-28,69.0
1951-09-29,76.0
1951-09-30,77.0
1951-10-01,82.0
1951-10-02,86.0
1951-10-03,87.0
1951-10-04,84.0
1951-10-05,81.0
1951-10-06,80.0
1951-10-07,80.0
1951-10-08,81.0
1951-10-09,83.0
1951-10-10,85.0
1951-10-11,83.0
1951-10-12,84.0
1951-10-13,84.0
1951-10-14,89.0
1951-10-15,89.0
1951-10-16,86.0
1951-10-17,87.0
1951-10-18,92.0
1951-10-19,90.0
1951-10-20,88.0
1951-10-21,86.0
1951-10-22,86.0
1951-10-23,88.0
1951-10-24,91.0
1951-10-25,86.0
1951-10-26,86.0
1951-10-27,94.0
1951-10-28,96.0
1951-10-29,87.0
1951-10-30,82.0
1951-10-31,80.0
1951-11-01,82.0
1951-11-02,80.0
1951-11-03,78.0
1951-11-04,77.0
1951-11-05,95.0
1951-11-06,103.0
1951-11-07,98.0
1951-11-08,95.0
1951-11-09,96.0
1951-11-10,97.0
1951-11-11,98.0
1951-11-12,97.0
1951-11-13,98.0
1951-11-14,98.0
1951-11-15,94.0
1951-11-16,87.0
1951-11-17,81.0
1951-11-18,86.0
1951-11-19,91.0
1951-11-20,93.0
1951-11-21,103.0
1951-11-22,99.0
1951-11-23,126.0
1951-11-24,168.0
1951-11-25,138.0
1951-11-26,113.0
1951-11-27,117.0
1951-11-28,118.0
1951-11-29,117.0
1951-11-30,128.0
1951-12-01,139.0
1951-12-02,153.0
1951-12-03,133.0
1951-12-04,146.0
1951-12-05,139.0
1951-12-06,143.0
1951-12-07,121.0
1951-12-08,179.0
1951-12-09,148.0
1951-12-10,164.0
1951-12-11,162.0
1951-12-12,177.0
1951-12-13,190.0
1951-12-14,204.0
1951-12-15,183.0
1951-12-16,197.0
1951-12-17,190.0
1951-12-18,190.0
1951-12-19,197.0
1951-12-20,197.0
1951-12-21,197.0
1951-12-22,190.0
1951-12-23,190.0
1951-12-24,197.0
1951-12-25,204.0
1951-12-26,212.0
1951-12-27,212.0
1951-12-28,212.0
1951-12-29,220.0
1951-12-30,235.0
1951-12-31,251.0
1952-01-01,259.0
1952-01-02,243.0
1952-01-03,235.0
1952-01-04,235.0
1952-01-05,220.0
1952-01-06,204.0
1952-01-07,212.0
1952-01-08,212.0
1952-01-09,212.0
1952-01-10,212.0
1952-01-11,212.0
1952-01-12,220.0
1952-01-13,243.0
1952-01-14,251.0
1952-01-15,227.0
1952-01-16,235.0
1952-01-17,235.0
1952-01-18,399.0
1952-01-19,484.0
1952-01-20,309.0
1952-01-21,275.0
1952-01-22,227.0
1952-01-23,220.0
1952-01-24,235.0
1952-01-25,235.0
1952-01-26,235.0
1952-01-27,235.0
1952-01-28,243.0
1952-01-29,243.0
1952-01-30,243.0
1952-01-31,243.0
1952-02-01,251.0
1952-02-02,243.0
1952-02-03,243.0
1952-02-04,235.0
1952-02-05,243.0
1952-02-06,235.0
1952-02-07,243.0
1952-02-08,251.0
1952-02-09,259.0
1952-02-10,251.0
1952-02-11,267.0
1952-02-12,251.0
1952-02-13,267.0
1952-02-14,235.0
1952-02-15,251.0
1952-02-16,259.0
1952-02-17,259.0
1952-02-18,275.0
1952-02-19,227.0
1952-02-20,243.0
1952-02-21,259.0
1952-02-22,267.0
1952-02-23,275.0
1952-02-24,275.0
1952-02-25,220.0
1952-02-26,225.0
1952-02-27,309.0
1952-02-28,284.0
1952-02-29,259.0
1952-03-01,292.0
1952-03-02,275.0
1952-03-03,251.0
1952-03-04,267.0
1952-03-05,284.0
1952-03-06,292.0
1952-03-07,309.0
1952-03-08,300.0
1952-03-09,300.0
1952-03-10,318.0
1952-03-11,318.0
1952-03-12,300.0
1952-03-13,309.0
1952-03-14,326.0
1952-03-15,362.0
1952-03-16,362.0
1952-03-17,335.0
1952-03-18,353.0
1952-03-19,353.0
1952-03-20,344.0
1952-03-21,353.0
1952-03-22,292.0
1952-03-23,277.0
1952-03-24,354.0
1952-03-25,344.0
1952-03-26,335.0
1952-03-27,335.0
1952-03-28,335.0
1952-03-29,326.0
1952-03-30,318.0
1952-03-31,309.0
1952-04-01,335.0
1952-04-02,362.0
1952-04-03,380.0
1952-04-04,380.0
1952-04-05,362.0
1952-04-06,371.0
1952-04-07,335.0
1952-04-08,275.0
1952-04-09,292.0
1952-04-10,456.0
1952-04-11,515.0
1952-04-12,495.0
1952-04-13,485.0
1952-04-14,390.0
1952-04-15,326.0
1952-04-16,309.0
1952-04-17,353.0
1952-04-18,428.0
1952-04-19,485.0
1952-04-20,525.0
1952-04-21,732.0
1952-04-22,830.0
1952-04-23,645.0
1952-04-24,585.0
1952-04-25,525.0
1952-04-26,585.0
1952-04-27,830.0
1952-04-28,1060.0
1952-04-29,1360.0
1952-04-30,1280.0
1952-05-01,1060.0
1952-05-02,985.0
1952-05-03,1360.0
1952-05-04,1940.0
1952-05-05,2490.0
1952-05-06,2990.0
1952-05-07,3310.0
1952-05-08,4070.0
1952-05-09,3070.0
1952-05-10,2910.0
1952-05-11,2910.0
1952-05-12,2360.0
1952-05-13,2300.0
1952-05-14,2490.0
1952-05-15,2630.0
1952-05-16,2770.0
1952-05-17,2910.0
1952-05-18,2990.0
1952-05-19,2990.0
1952-05-20,2700.0
1952-05-21,2360.0
1952-05-22,2180.0
1952-05-23,2120.0
1952-05-24,2120.0
1952-05-25,1960.0
1952-05-26,2060.0
1952-05-27,2240.0
1952-05-28,2360.0
1952-05-29,2490.0
1952-05-30,2490.0
1952-05-31,2630.0
1952-06-01,2630.0
1952-06-02,2560.0
1952-06-03,2840.0
1952-06-04,2770.0
1952-06-05,2840.0
1952-06-06,2770.0
1952-06-07,2700.0
1952-06-08,2700.0
1952-06-09,2910.0
1952-06-10,3150.0
1952-06-11,3070.0
1952-06-12,2990.0
1952-06-13,3150.0
1952-06-14,3230.0
1952-06-15,3310.0
1952-06-16,3390.0
1952-06-17,3070.0
1952-06-18,2770.0
1952-06-19,2490.0
1952-06-20,2120.0
1952-06-21,1810.0
1952-06-22,1760.0
1952-06-23,1710.0
1952-06-24,1480.0
1952-06-25,1160.0
1952-06-26,1060.0
1952-06-27,1020.0
1952-06-28,1020.0
1952-06-29,890.0
1952-06-30,830.0
1952-07-01,830.0
1952-07-02,758.0
1952-07-03,695.0
1952-07-04,645.0
1952-07-05,682.0
1952-07-06,800.0
1952-07-07,920.0
1952-07-08,920.0
1952-07-09,800.0
1952-07-10,758.0
1952-07-11,745.0
1952-07-12,758.0
1952-07-13,682.0
1952-07-14,645.0
1952-07-15,620.0
1952-07-16,600.0
1952-07-17,500.0
1952-07-18,420.0
1952-07-19,380.0
1952-07-20,320.0
1952-07-21,280.0
1952-07-22,250.0
1952-07-23,240.0
1952-07-24,200.0
1952-07-25,180.0
1952-07-26,160.0
1952-07-27,140.0
1952-07-28,160.0
1952-07-29,140.0
1952-07-30,140.0
1952-07-31,230.0
1952-08-01,540.0
1952-08-02,830.0
1952-08-03,880.0
1952-08-04,870.0
1952-08-05,800.0
1952-08-06,800.0
1952-08-07,720.0
1952-08-08,670.0
1952-08-09,620.0
1952-08-10,708.0
1952-08-11,708.0
1952-08-12,708.0
1952-08-13,758.0
1952-08-14,708.0
1952-08-15,708.0
1952-08-16,708.0
1952-08-17,670.0
1952-08-18,682.0